Weather History for Phoenix-Mesa Gateway Airport, AZ

Change the Weather History Date:

Tuesday, March 26, 2013

  Actual Average Record
Temperature  
Mean Temperature 68 °F -  
Max Temperature 84 °F 77 °F 86 °F (2003)
Min Temperature 53 °F 51 °F 46 °F (2005)
Cooling Degree Days 4    
Growing Degree Days 18 (Base 50)    
Moisture  
Dew Point 26 °F    
Average Humidity 26    
Maximum Humidity 41    
Minimum Humidity 8    
Precipitation  
Precipitation 0.00 in - - ()
Sea Level Pressure  
Sea Level Pressure 29.90 in    
Wind  
Wind Speed 5 mph (ESE)    
Max Wind Speed 10 mph    
Max Gust Speed 17 mph    
Visibility 11 miles    
Events      
Averages and records for this station are not official NWS values.
T = Trace of Precipitation, MM = Missing Value Source: NWS Daily Summary

Daily Weather History Graph

Daily Weather History Graph

Search for Another Location

Airport:

Trip Planner

Search our weather history database for the weather conditions in past years. The results will help you decide how hot, cold, wet, or windy it might be!

Date:

Astronomy

Mar. 26, 2013 Rise Set
Actual Time 6:21 AM MST 6:42 PM MST
Civil Twilight 5:57 AM MST 7:07 PM MST
Nautical Twilight 5:28 AM MST 7:36 PM MST
Astronomical Twilight 4:58 AM MST 8:06 PM MST
Moon 6:22 PM MST (3/26) 5:39 AM MST (3/26)
Length of Visible Light 13h 10m
Length of Day
12h 21m
Full, 100% of the Moon is Illuminated
Mar 26
Full
Mar 27
Full
Apr 2
Last Quarter
Apr 10
New
Apr 18
First Quarter

Hourly Weather History & Observations

Time (MST) Temp. Dew Point Humidity Pressure Visibility Wind Dir Wind Speed Gust Speed Precip Events Conditions
12:15 AM 59.0 °F 24.8 °F 27% 29.94 in 10.0 mi SE 3.5 mph - N/A   Clear
12:35 AM 55.4 °F 32.0 °F 41% 29.93 in 10.0 mi SSE 8.1 mph - N/A   Clear
12:55 AM 57.2 °F 30.2 °F 36% 29.93 in 10.0 mi SSE 6.9 mph - N/A   Clear
1:15 AM 57.2 °F 30.2 °F 36% 29.93 in 10.0 mi SE 5.8 mph - N/A   Clear
1:35 AM 55.4 °F 30.2 °F 38% 29.93 in 10.0 mi ESE 4.6 mph - N/A   Clear
1:55 AM 55.4 °F 30.2 °F 38% 29.93 in 10.0 mi ESE 3.5 mph - N/A   Clear
2:15 AM 55.4 °F 28.4 °F 36% 29.93 in 10.0 mi East 4.6 mph - N/A   Clear
2:35 AM 55.4 °F 28.4 °F 36% 29.92 in 10.0 mi East 4.6 mph - N/A   Clear
2:55 AM 55.4 °F 28.4 °F 36% 29.92 in 10.0 mi East 4.6 mph - N/A   Clear
3:15 AM 55.4 °F 28.4 °F 36% 29.92 in 10.0 mi East 6.9 mph - N/A   Clear
3:35 AM 53.6 °F 28.4 °F 38% 29.92 in 10.0 mi East 6.9 mph - N/A   Clear
3:55 AM 55.4 °F 28.4 °F 36% 29.92 in 10.0 mi ESE 6.9 mph - N/A   Clear
4:15 AM 57.2 °F 26.6 °F 31% 29.92 in 10.0 mi ESE 8.1 mph - N/A   Clear
4:35 AM 57.2 °F 24.8 °F 29% 29.92 in 10.0 mi East 4.6 mph - N/A   Clear
4:55 AM 53.6 °F 26.6 °F 35% 29.92 in 10.0 mi ESE 4.6 mph - N/A   Clear
5:15 AM 53.6 °F 26.6 °F 35% 29.93 in 10.0 mi ESE 4.6 mph - N/A   Clear
5:47 AM 53.6 °F 26.6 °F 35% 29.93 in 20.0 mi SE 4.6 mph - N/A   Mostly Cloudy
6:47 AM 53.6 °F 26.6 °F 35% 29.95 in 45.0 mi ESE 4.6 mph - N/A   Mostly Cloudy
8:50 AM 64.4 °F 28.4 °F 26% 29.97 in 45.0 mi ESE 5.8 mph - N/A   Mostly Cloudy
9:47 AM 73.4 °F - N/A% 29.97 in 45.0 mi ESE 4.6 mph - N/A   Mostly Cloudy
10:47 AM 78.8 °F 17.6 °F 10% 29.95 in 45.0 mi SE 10.4 mph 17.3 mph N/A   Mostly Cloudy
11:47 AM 78.8 °F 21.2 °F 12% 29.93 in 45.0 mi SSE 6.9 mph - N/A   Mostly Cloudy
12:47 PM 80.6 °F 19.4 °F 10% 29.92 in 45.0 mi South 6.9 mph - N/A   Mostly Cloudy
1:47 PM 82.4 °F 19.4 °F 10% 29.90 in 45.0 mi SSE 3.5 mph - N/A   Mostly Cloudy
2:47 PM 84.2 °F 19.4 °F 9% 29.87 in 45.0 mi East 4.6 mph - N/A   Scattered Clouds
3:47 PM 84.2 °F 17.6 °F 8% 29.85 in 45.0 mi Calm Calm - N/A   Scattered Clouds
4:47 PM 84.2 °F 17.6 °F 8% 29.83 in 45.0 mi NNW 4.6 mph - N/A   Scattered Clouds
5:47 PM 84.2 °F 19.4 °F 9% 29.82 in 45.0 mi West 4.6 mph - N/A   Scattered Clouds
6:47 PM 80.6 °F 17.6 °F 10% 29.82 in 20.0 mi Calm Calm - N/A   Scattered Clouds
7:47 PM 73.4 °F 26.6 °F 18% 29.83 in 20.0 mi Calm Calm - N/A   Partly Cloudy
7:55 PM 71.6 °F 23.0 °F 16% 29.83 in 10.0 mi Calm Calm - N/A   Clear
8:15 PM 69.8 °F 26.6 °F 20% 29.84 in 10.0 mi East 4.6 mph - N/A   Clear
8:35 PM 66.2 °F 30.2 °F 26% 29.85 in 10.0 mi ESE 3.5 mph - N/A   Clear
8:47 PM 66.2 °F 28.4 °F 24% 29.85 in 20.0 mi Calm Calm - N/A   Partly Cloudy
8:55 PM 69.8 °F 24.8 °F 18% 29.85 in 10.0 mi East 3.5 mph - N/A   Clear
9:15 PM 64.4 °F 24.8 °F 22% 29.86 in 10.0 mi ESE 4.6 mph - N/A   Clear
9:35 PM 64.4 °F 24.8 °F 22% 29.86 in 10.0 mi ESE 3.5 mph - N/A   Clear
9:55 PM 64.4 °F 26.6 °F 24% 29.87 in 10.0 mi ESE 5.8 mph - N/A   Clear
10:15 PM 62.6 °F 26.6 °F 26% 29.87 in 10.0 mi East 4.6 mph - N/A   Clear
10:35 PM 62.6 °F 26.6 °F 26% 29.88 in 10.0 mi ESE 5.8 mph - N/A   Clear
10:55 PM 60.8 °F 26.6 °F 27% 29.88 in 10.0 mi ESE 5.8 mph - N/A   Clear
11:15 PM 57.2 °F 26.6 °F 31% 29.88 in 10.0 mi ESE 6.9 mph - N/A   Clear
11:35 PM 57.2 °F 26.6 °F 31% 29.89 in 10.0 mi ESE 4.6 mph - N/A   Clear
11:55 PM 57.2 °F 26.6 °F 31% 29.89 in 10.0 mi East 5.8 mph - N/A   Clear